{"data":{"norad_id":62666,"intl_designator":"2025-009BK","name":"FLOCK 4G-1","alt_names":[],"object_type":"PAYLOAD","status":"ACTIVE","operator":null,"country":"US","launch_date":"2025-01-14","launch_site_code":"AFWTR","launch_vehicle":null,"mission":null,"orbit_class":"UNKNOWN","rcs_meters":null,"size_class":null,"mass_kg":null,"dimensions":null,"purposes":["earth_obs"],"wikipedia_slug":null,"has_3d_model":false,"image_url":null,"decayed_at":null,"tle_current":{"epoch":"2026-05-25T03:58:23.957184Z","epoch_age_seconds":64043,"freshness":"FRESH","line1":"1 62666U 25009BK  26145.16555506  .00011264  00000+0  40103-3 0  9997","line2":"2 62666  97.4023 227.2700 0005192  60.5724 299.6034 15.29103891 75390","mean_motion":15.29103891,"eccentricity":0.0005192,"inclination_deg":97.4023,"raan_deg":227.27,"arg_perigee_deg":60.5724,"mean_anomaly_deg":299.6034,"bstar":0.00040103,"rev_number":7539,"period_min":94.172803331124,"perigee_km":474.92984755121,"apogee_km":482.04976882883,"semimajor_km":6856.62680819,"source":"CELESTRAK","updated_at":"2026-05-25T13:38:13.341840Z"}}}